Content
SEND FEEDBACK

Daily
Averages
Monthly
Summary
United States of America

GREENLAND, ARKANSAS


Home > North America > United States > Arkansas
Elevation: 1250 feet     Latitude: 36 00N     Longitude: 094 10W

WEATHER
 
SELECT A DAY
Number of Records: 197,885;   Date Range: 1/1/95 - 11/26/14
 
SHARE

PRINT THIS DATA

[ ← Previous Day ]
WEATHER ALMANAC - MARCH 21, 2014
[ Next Day → ]
[ °C ]   °F
Weather ElementAverageHighLow
Temperature57.8 °F69.1 °F (4:53 pm)45 °F (2:53 am)
Dewpoint39.6 °F57.2 °F (7:22 pm)26.1 °F (3:53 am)
Humidity54.1 %100 % (8:24 pm)33 % (10:53 am)
Barometer29.91 in30.01 in (11:53 pm)29.82 in (3:53 pm)
Wind Speed7.4 mph18.4 mph (3:53 pm)
Wind Gust26.5 mph (11:53 am)
Weather ElementAverage
Visibility9.7 mi
Wind DirectionESE (127.3 °)

Weather ElementTotal
Precipitation0.12 in
Heating Degree Days8 (Base 65)
Growing Degree Days7.1 (Base 50)
Averaged from 26 records on March 21, 2014
WEATHER CONDITIONS BREAKOUT
WIND DIRECTION BREAKOUT
WEATHER BY HOUR - MARCH 21, 2014
[ °C ]   °F
Local TimeTemperatureDewpointHumidityBarometerVisibilityWind DirectionWind SpeedGust SpeedPrecipitationEventsConditions
1:53 AM46.9 °F27.0 °F46 %29.97 in10.0 miCalmClear
2:53 AM45.0 °F27.0 °F49 %29.97 in10.0 miSouth (190°)4.6 mphClear
3:53 AM46.9 °F26.1 °F44 %29.95 in10.0 miSW (220°)3.5 mphClear
4:53 AM48.0 °F27.0 °F44 %29.92 in10.0 miCalmClear
5:53 AM46.9 °F26.1 °F44 %29.91 in10.0 miSSW (200°)5.8 mphClear
6:53 AM46.9 °F28.0 °F48 %29.91 in10.0 miSSW (200°)5.8 mphClear
7:53 AM50.0 °F27.0 °F41 %29.90 in10.0 miVariable3.5 mphClear
8:53 AM54.0 °F28.9 °F38 %29.93 in10.0 miSouth (190°)12.7 mphClear
9:53 AM57.9 °F30.0 °F35 %29.92 in10.0 miSouth (190°)12.7 mph18.4 mphClear
10:53 AM63.0 °F33.1 °F33 %29.90 in10.0 miSouth (190°)17.3 mph24.2 mphClear
11:53 AM64.9 °F36.0 °F34 %29.88 in10.0 miSouth (180°)16.1 mph26.5 mphClear
12:53 PM66.0 °F39.9 °F38 %29.88 in10.0 miSSW (200°)16.1 mph25.3 mphClear
1:53 PM68.0 °F42.1 °F39 %29.88 in10.0 miSW (220°)12.7 mph19.6 mphClear
2:53 PM66.0 °F42.1 °F42 %29.83 in10.0 miSouth (180°)17.3 mph24.2 mphClear
3:53 PM68.0 °F42.1 °F39 %29.82 in10.0 miSouth (180°)18.4 mph24.2 mphClear
4:53 PM69.1 °F44.1 °F40 %29.84 in10.0 miSW (230°)11.5 mphMostly Cloudy
5:53 PM68.0 °F45.0 °F43 %29.85 in10.0 miSW (230°)8.1 mphOvercast
6:53 PM66.9 °F46.0 °F47 %29.87 in10.0 miCalmOvercast
7:22 PM60.8 °F57.2 °F88 %29.88 in10.0 miCalm0.01 inThunderstormOvercast
7:53 PM59.0 °F55.9 °F90 %29.90 in3.0 miWSW (240°)8.1 mph0.11 inRain-ThunderstormHeavy Thunderstorms and Rain
8:24 PM57.2 °F57.2 °F100 %29.91 in10.0 miCalm0.00 inRainLight Rain
8:53 PM55.9 °F55.0 °F97 %29.91 in10.0 miCalm0.00 inThunderstormOvercast
9:07 PM57.2 °F55.4 °F94 %29.93 in10.0 miSSW (200°)3.5 mphOvercast
9:53 PM57.0 °F54.0 °F89 %29.96 in10.0 miNNE (20°)3.5 mphOvercast
10:53 PM57.0 °F39.9 °F53 %29.98 in10.0 miNNE (20°)6.9 mphOvercast
11:53 PM55.0 °F37.0 °F51 %30.01 in10.0 miNNE (30°)4.6 mphMostly Cloudy
Hourly data recorded from KFYV, located miles away from Greenland, Arkansas







STORIES FROM OUR PARTNERS